Terminal Aerodrome Forecast
Issued by NWS Greer, SC

Home | Current Version | Previous Version | Text Only | Print | Product List | Glossary On
Versions: 1 2 3 4 5 6 7 8 9 10 11 12 13 14 15 16 17
000
FTUS42 KGSP 010500
TAFGSP
TAF
KGSP 010535Z 0106/0206 22003KT P6SM BKN250
     FM011000 00000KT 5SM BR SCT250
     FM011300 24003KT P6SM SCT250
     FM011600 24006KT P6SM SCT060
     FM012100 21003KT P6SM BKN060
     FM020100 22003KT P6SM SCT060=

USA.gov is the U.S. government's official web portal to all federal, state and local government web resources and services.